Weather History for Capri, Italy

Change the Weather History Date:

Sunday, November 11, 2012

  Actual Average Record
Temperature  
Mean Temperature 68 °F -  
Max Temperature 71 °F - - ()
Min Temperature 66 °F - - ()
Cooling Degree Days 3    
Growing Degree Days 18 (Base 50)    
Moisture  
Dew Point 65 °F    
Average Humidity 86    
Maximum Humidity 94    
Minimum Humidity 78    
Precipitation  
Precipitation 0.00 in - - ()
Sea Level Pressure  
Sea Level Pressure 29.97 in    
Wind  
Wind Speed 6 mph ()    
Max Wind Speed 13 mph    
Max Gust Speed 25 mph    
Visibility 6.6 miles    
Events      
T = Trace of Precipitation, MM = Missing Value Source: Averaged Metar Reports

Daily Weather History Graph

Daily Weather History Graph

Search for Another Location

Airport:

Trip Planner

Search our weather history database for the weather conditions in past years. The results will help you decide how hot, cold, wet, or windy it might be!

Date:

Astronomy

Nov. 11, 2012 Rise Set
Actual Time 6:45 AM CET 4:48 PM CET
Civil Twilight 6:16 AM CET 5:17 PM CET
Nautical Twilight 5:43 AM CET 5:50 PM CET
Astronomical Twilight 5:11 AM CET 6:22 PM CET
Moon 3:38 AM CET (11/11) 3:01 PM CET (11/11)
Length of Visible Light 11h 01m
Length of Day
10h 03m
Waning Crescent, 9% of the Moon is Illuminated
Nov 11
Waning Crescent
Nov 13
New
Nov 20
First Quarter
Nov 28
Full
Dec 6
Last Quarter

Hourly Weather History & Observations

Time (CET) Temp. Dew Point Humidity Pressure Visibility Wind Dir Wind Speed Gust Speed Precip Events Conditions
12:55 AM 66.2 °F 60.8 °F 83% 29.98 in - Calm Calm - N/A   Clear
1:00 AM 66 °F 61 °F 78% 29.98 in 12 mi Calm Calm - -  
4:00 AM 66 °F 61 °F 78% 29.94 in 12 mi WNW 4.6 mph - -   Mostly Cloudy
6:55 AM 68.0 °F 66.2 °F 94% 29.92 in 6.2 mi West 6.9 mph - N/A   Mostly Cloudy
7:00 AM 68 °F 66 °F 90% 29.92 in 6 mi West 6.9 mph - -  
7:55 AM 68.0 °F 64.4 °F 88% 29.95 in 6.2 mi WNW 5.8 mph - N/A   Scattered Clouds
8:55 AM 68.0 °F 66.2 °F 94% 29.95 in 6.2 mi SW 6.9 mph - N/A   Scattered Clouds
9:55 AM 68.0 °F 64.4 °F 88% 29.98 in 6.2 mi ESE 10.4 mph - N/A   Scattered Clouds
10:00 AM 68 °F 65 °F 87% 29.98 in 6 mi ESE 10.4 mph - -   Partly Cloudy
10:55 AM 68.0 °F 66.2 °F 94% 29.98 in 6.2 mi East 11.5 mph 24.2 mph N/A   Mostly Cloudy
11:55 AM 68.0 °F 66.2 °F 94% 29.98 in 6.2 mi ESE 11.5 mph - N/A   Scattered Clouds
12:55 PM 69.8 °F 66.2 °F 88% 29.98 in 6.2 mi SSE 11.5 mph - N/A   Scattered Clouds
1:00 PM 70 °F 65 °F 81% 29.97 in 6 mi SSE 11.5 mph - -  
3:55 PM 69.8 °F 66.2 °F 88% 29.95 in 6.2 mi SE 12.7 mph - N/A   Scattered Clouds
4:00 PM 70 °F 66 °F 85% 29.94 in 6 mi SE 12.7 mph - -   Partly Cloudy
4:55 PM 69.8 °F 66.2 °F 88% 29.95 in 6.2 mi SSE 11.5 mph 25.3 mph N/A   Scattered Clouds
5:55 PM 69.8 °F 68.0 °F 94% 29.95 in 6.2 mi SE 10.4 mph - N/A   Scattered Clouds
6:55 PM 69.8 °F 66.2 °F 88% 29.98 in 6.2 mi SSE 10.4 mph - N/A   Scattered Clouds
7:00 PM 70 °F 66 °F 83% 29.97 in 6 mi SSE 10.4 mph - -  
7:55 PM 69.8 °F 64.4 °F 83% 29.98 in 6.2 mi East 11.5 mph - N/A   Scattered Clouds
8:55 PM 69.8 °F 66.2 °F 88% 29.98 in 6.2 mi ESE 8.1 mph - N/A   Scattered Clouds
9:55 PM 69.8 °F 64.4 °F 83% 30.04 in 6.2 mi East 8.1 mph - N/A   Scattered Clouds
10:00 PM 70 °F 65 °F 79% 30.02 in 6 mi East 8.1 mph - -   Partly Cloudy
10:55 PM 69.8 °F 64.4 °F 83% 30.04 in 6.2 mi East 11.5 mph - N/A   Scattered Clouds
11:55 PM 71.6 °F 64.4 °F 78% 30.04 in 6.2 mi ESE 10.4 mph - N/A   Scattered Clouds